Showing default

INTELSAT 11 (PAS 11), 32253

Orbit data source: Space-Track

INTELSAT 11 (PAS 11), 32253 is a payload satellite owned by Intelsat Ltd (US) (US) in GEO that was launched on Fri, 05 Oct 2007 UTC via an ARIANE 5GS launch vehicle from the French Guiana (FRGUI). Payload-class satellites include a variety of spacecraft equipped with specific instruments for various scientific and technological missions. These include communications satellites like Starlink; space stations such as the ISS; scientific satellites like the Hubble; Earth observation satellites from companies like Planet Labs, Umbra, and HawkEye 360; GPS; miniature CubeSats for education and research; and military/defense satellites.

Not visible in the next 10 days
Identifier
32253, 2007-044B
Orbit
GEO
Last TLE update
9 hours ago
Origin
Manufacturer
OSC
Mission
Operational Commercial Communications
Bus & Motor
OSC STAR 2.4, BT-4
Mass
2,450 kg wet, 1,145 kg dry
Launch date (UTC)
2007-10-05 (18 years ago)
Launch vehicle
ARIANE 5GS
Launch site
French Guiana (FRGUI)
Object type
Payload
Rocket body
Debris
Shape & HBR
Box + 2 Pan, Unknown HBR
Radar Cross Section
24.482 m², Large (>1 m²)

Expand to show TLE details & history

TLE from 9 hours ago
0 INTELSAT 11 (PAS 11)
1 32253U 07044B   25128.87663948 -.00000103  00000-0  00000-0 0  9994
2 32253   2.5124  83.6671 0000911  22.8387 180.3792  0.99045917 64445
Epoch: 2025-05-08T21:02Z
Definitive object data (Epoch: 2025-05-08T21:02:21.651Z)
Latitude
-0.98447°
Longitude
104.33355°
Altitude
36,137.282 km
Speed
3.062 km/s
True Right ascension
19h 07m 27s
True Declination
0° 59' 01"
Sunlit
Object was in daylight at TLE epoch
Visualization TLE readout
Latitude
-0.84835°
Longitude
-118.82414°
Altitude
36,130.608 km
Speed
3.062 km/s
Apparent Right ascension
04h 03m 39s
Apparent Declination
-5° 43' 23"
Sunlit
Object is in daylight
Visualization observer readout
Local Sidereal Time
14:23:41
Azimuth
320.065° NNW
Elevation
-49.085°
Doppler factor
1
Orbital elements
Apogee altitude
36,138.722 km
Perigee altitude
36,130.976 km
Semi-major axis
42,512.986 km
Eccentricity
0.0000911
Inclination
2.5124°
RAAN
83.6671°
Arg. of periapsis
22.8387°
True anomaly
180.37913°
Mean anomaly
180.3792°
Eccentric anomaly
180.37917°
Mean motion
0.24761 °/min
BSTAR
Unknown
Orbital period
1453.92 mins
Loading historical data...
32253 neighbors
Loading maneuver chart data...
Loading SW <> Apogee altitude chart data...
Loading historical data...
Loading historical data...
Loading historical data...
Loading historical data...
Loading historical data...
Loading historical data...
Loading historical data...
Other satellites on launch #44 in the year 2007 (2007-10-05 UTC)

INTELSAT 11 (PAS 11) Visibility forecast

Observer location: undefined°, undefined°

INTELSAT 11 (PAS 11) is not visible in the next 10 days
Span
Click to sort rows by Start time (UTC) header in descending order
Start Az.
Max El. time (UTC)
Max El. Az.
Max El.
End time (UTC)
End Az.
|